TimeMST,TemperatureF,Dew PointF,Humidity,Sea Level PressureIn,VisibilityMPH,Wind Direction,Wind SpeedMPH,Gust SpeedMPH,PrecipitationIn,Events,Conditions,WindDirDegrees,DateUTC
12:00 AM,25.9,19.8,78,-9999,-9999.0,SSW,3.5,-,N/A,,Unknown,200,2013-02-15 07:00:00
1:00 AM,26.1,20.1,78,-9999,-9999.0,South,4.6,-,N/A,,Unknown,190,2013-02-15 08:00:00
2:00 AM,26.1,20.7,80,-9999,-9999.0,SSW,3.5,-,N/A,,Unknown,210,2013-02-15 09:00:00
3:00 AM,27.0,20.3,76,-9999,-9999.0,SSW,4.6,-,N/A,,Unknown,200,2013-02-15 10:00:00
4:00 AM,27.0,19.9,75,-9999,-9999.0,SSW,3.5,-,N/A,,Unknown,210,2013-02-15 11:00:00
5:00 AM,26,17,58,,,SW,5.8,,,,,220,2013-02-15 12:00:00
5:00 AM,25.7,17.2,70,-9999,-9999.0,SW,5.8,-,N/A,,Unknown,220,2013-02-15 12:00:00
6:00 AM,23.5,16.7,75,-9999,-9999.0,South,4.6,-,N/A,,Unknown,190,2013-02-15 13:00:00
7:00 AM,22.3,15.3,74,-9999,-9999.0,SSW,5.8,-,N/A,,Unknown,200,2013-02-15 14:00:00
8:00 AM,25.0,16.5,70,-9999,-9999.0,SW,6.9,-,N/A,,Unknown,220,2013-02-15 15:00:00
9:00 AM,28.0,19.2,70,-9999,-9999.0,SSW,5.8,-,N/A,,Unknown,200,2013-02-15 16:00:00
10:00 AM,31.6,21.9,67,-9999,-9999.0,SSW,8.1,-,N/A,,Unknown,200,2013-02-15 17:00:00
11:00 AM,41,25,40,,,West,6.9,,,,,260,2013-02-15 18:00:00
11:00 AM,41.4,24.8,52,-9999,-9999.0,West,6.9,-,N/A,,Unknown,260,2013-02-15 18:00:00
12:00 PM,41.2,26.8,57,-9999,-9999.0,West,4.6,-,N/A,,Unknown,260,2013-02-15 19:00:00
1:00 PM,44.2,28.9,55,-9999,-9999.0,West,4.6,-,N/A,,Unknown,260,2013-02-15 20:00:00
2:00 PM,46.2,30.7,55,-9999,-9999.0,WNW,6.9,-,N/A,,Unknown,290,2013-02-15 21:00:00
3:00 PM,48.6,32.0,53,-9999,-9999.0,West,6.9,-,N/A,,Unknown,270,2013-02-15 22:00:00
4:00 PM,50.9,32.9,50,-9999,-9999.0,WNW,6.9,-,N/A,,Unknown,300,2013-02-15 23:00:00
5:00 PM,46,31,44,,,West,8.1,,,,,260,2013-02-16 00:00:00
5:00 PM,46.4,30.9,55,-9999,-9999.0,West,8.1,-,N/A,,Unknown,260,2013-02-16 00:00:00
6:00 PM,41.0,28.4,61,-9999,-9999.0,West,11.5,-,N/A,,Unknown,260,2013-02-16 01:00:00
7:00 PM,41.0,27.7,59,-9999,-9999.0,West,15.0,-,N/A,,Unknown,260,2013-02-16 02:00:00
8:00 PM,39.7,28.0,63,-9999,-9999.0,West,18.4,24.2,N/A,,Unknown,270,2013-02-16 03:00:00
9:00 PM,38.7,28.0,66,-9999,-9999.0,West,16.1,-,N/A,,Unknown,260,2013-02-16 04:00:00
10:00 PM,38.7,28.0,66,-9999,-9999.0,West,17.3,-,N/A,,Unknown,270,2013-02-16 05:00:00
11:00 PM,38,28,57,,,West,16.1,,,,,270,2013-02-16 06:00:00
11:00 PM,38.1,28.2,68,-9999,-9999.0,West,16.1,-,N/A,,Unknown,270,2013-02-16 06:00:00